Date_Time,Julian_Date,Latitude,Longitude,Instrument_Depth,U,V,Speed,Direction
(yyyy-mm-dd hh:mn:ss UTC),(JD),(+ deg. North),(+ deg. East),(m),(cm/s),(cm/s),(cm/s),(deg True)
1981-07-09 22:30:00 UTC,2444795.437500,29.6417,-93.6667,0037,12.69,-5.92,14.0000,115.0000
1981-07-09 23:00:00 UTC,2444795.458333,29.6417,-93.6667,0037,11.61,-7.83,14.0000,124.0000
1981-07-09 23:30:00 UTC,2444795.479167,29.6417,-93.6667,0037,9.35,-9.03,13.0000,134.0000
1981-07-10 00:00:00 UTC,2444795.500000,29.6417,-93.6667,0037,6.31,-9.01,11.0000,145.0000
1981-07-10 00:30:00 UTC,2444795.520833,29.6417,-93.6667,0037,3.25,-7.31,8.0000,156.0000
1981-07-10 01:00:00 UTC,2444795.541667,29.6417,-93.6667,0037,1.38,-4.81,5.0000,164.0000
1981-07-10 01:30:00 UTC,2444795.562500,29.6417,-93.6667,0037,0.42,-1.96,2.0000,168.0000
1981-07-10 02:00:00 UTC,2444795.583333,29.6417,-93.6667,0037,1.00,-1.73,2.0000,150.0000
1981-07-10 02:30:00 UTC,2444795.604167,29.6417,-93.6667,0037,2.01,-2.23,3.0000,138.0000
1981-07-10 03:00:00 UTC,2444795.625000,29.6417,-93.6667,0037,2.16,-2.08,3.0000,134.0000
1981-07-10 03:30:00 UTC,2444795.645833,29.6417,-93.6667,0037,2.08,-2.16,3.0000,136.0000
1981-07-10 04:00:00 UTC,2444795.666667,29.6417,-93.6667,0037,3.47,-3.60,5.0000,136.0000
1981-07-10 04:30:00 UTC,2444795.687500,29.6417,-93.6667,0037,5.73,-4.02,7.0000,125.0000
1981-07-10 05:00:00 UTC,2444795.708333,29.6417,-93.6667,0037,7.52,-2.74,8.0000,110.0000
1981-07-10 05:30:00 UTC,2444795.729167,29.6417,-93.6667,0037,9.78,-2.08,10.0000,102.0000
1981-07-10 06:00:00 UTC,2444795.750000,29.6417,-93.6667,0037,9.61,-2.76,10.0000,106.0000
1981-07-10 06:30:00 UTC,2444795.770833,29.6417,-93.6667,0037,10.05,-4.47,11.0000,114.0000
1981-07-10 07:00:00 UTC,2444795.791667,29.6417,-93.6667,0037,8.83,-4.69,10.0000,118.0000
1981-07-10 07:30:00 UTC,2444795.812500,29.6417,-93.6667,0037,8.09,-3.95,9.0000,116.0000
1981-07-10 08:00:00 UTC,2444795.833333,29.6417,-93.6667,0037,7.31,-3.25,8.0000,114.0000
1981-07-10 08:30:00 UTC,2444795.854167,29.6417,-93.6667,0037,8.09,-3.95,9.0000,116.0000
1981-07-10 09:00:00 UTC,2444795.875000,29.6417,-93.6667,0037,9.21,-3.91,10.0000,113.0000
1981-07-10 09:30:00 UTC,2444795.895833,29.6417,-93.6667,0037,10.72,-2.47,11.0000,103.0000
1981-07-10 10:00:00 UTC,2444795.916667,29.6417,-93.6667,0037,9.98,-0.70,10.0000,94.0000
1981-07-10 10:30:00 UTC,2444795.937500,29.6417,-93.6667,0037,6.99,-0.37,7.0000,93.0000
1981-07-10 11:00:00 UTC,2444795.958333,29.6417,-93.6667,0037,5.94,0.84,6.0000,82.0000
1981-07-10 11:30:00 UTC,2444795.979167,29.6417,-93.6667,0037,6.78,4.24,8.0000,58.0000
1981-07-10 12:00:00 UTC,2444796.000000,29.6417,-93.6667,0037,8.30,7.22,11.0000,49.0000
1981-07-10 12:30:00 UTC,2444796.020833,29.6417,-93.6667,0037,8.04,7.50,11.0000,47.0000
1981-07-10 13:00:00 UTC,2444796.041667,29.6417,-93.6667,0037,9.06,7.87,12.0000,49.0000
1981-07-10 13:30:00 UTC,2444796.062500,29.6417,-93.6667,0037,11.98,9.03,15.0000,53.0000
1981-07-10 14:00:00 UTC,2444796.083333,29.6417,-93.6667,0037,15.75,10.62,19.0000,56.0000
1981-07-10 14:30:00 UTC,2444796.104167,29.6417,-93.6667,0037,19.07,12.86,23.0000,56.0000
1981-07-10 15:00:00 UTC,2444796.125000,29.6417,-93.6667,0037,19.29,12.53,23.0000,57.0000
1981-07-10 15:30:00 UTC,2444796.145833,29.6417,-93.6667,0037,16.11,10.07,19.0000,58.0000
1981-07-10 16:00:00 UTC,2444796.166667,29.6417,-93.6667,0037,15.41,7.18,17.0000,65.0000
1981-07-10 16:30:00 UTC,2444796.187500,29.6417,-93.6667,0037,16.42,4.40,17.0000,75.0000
1981-07-10 17:00:00 UTC,2444796.208333,29.6417,-93.6667,0037,15.94,1.39,16.0000,85.0000
1981-07-10 17:30:00 UTC,2444796.229167,29.6417,-93.6667,0037,14.89,-1.83,15.0000,97.0000
1981-07-10 18:00:00 UTC,2444796.250000,29.6417,-93.6667,0037,14.94,-5.73,16.0000,111.0000
1981-07-10 18:30:00 UTC,2444796.270833,29.6417,-93.6667,0037,13.93,-9.75,17.0000,125.0000
1981-07-10 19:00:00 UTC,2444796.291667,29.6417,-93.6667,0037,13.79,-11.57,18.0000,130.0000
1981-07-10 19:30:00 UTC,2444796.312500,29.6417,-93.6667,0037,13.90,-12.96,19.0000,133.0000
1981-07-10 20:00:00 UTC,2444796.333333,29.6417,-93.6667,0037,11.17,-15.37,19.0000,144.0000
1981-07-10 20:30:00 UTC,2444796.354167,29.6417,-93.6667,0037,6.84,-18.79,20.0000,160.0000
1981-07-10 21:00:00 UTC,2444796.375000,29.6417,-93.6667,0037,1.83,-20.92,21.0000,175.0000
1981-07-10 21:30:00 UTC,2444796.395833,29.6417,-93.6667,0037,-2.72,-25.86,26.0000,186.0000
1981-07-10 22:00:00 UTC,2444796.416667,29.6417,-93.6667,0037,-4.02,-32.75,33.0000,187.0000
1981-07-10 22:30:00 UTC,2444796.437500,29.6417,-93.6667,0037,-2.23,-31.92,32.0000,184.0000
1981-07-10 23:00:00 UTC,2444796.458333,29.6417,-93.6667,0037,-2.18,-24.90,25.0000,185.0000
1981-07-10 23:30:00 UTC,2444796.479167,29.6417,-93.6667,0037,-8.33,-17.08,19.0000,206.0000
1981-07-11 00:00:00 UTC,2444796.500000,29.6417,-93.6667,0037,-15.36,-14.32,21.0000,227.0000
1981-07-11 00:30:00 UTC,2444796.520833,29.6417,-93.6667,0037,-19.24,-10.67,22.0000,241.0000
1981-07-11 01:00:00 UTC,2444796.541667,29.6417,-93.6667,0037,-22.32,-5.56,23.0000,256.0000
1981-07-11 01:30:00 UTC,2444796.562500,29.6417,-93.6667,0037,-23.00,-0.40,23.0000,269.0000
1981-07-11 02:00:00 UTC,2444796.583333,29.6417,-93.6667,0037,-19.63,3.82,20.0000,281.0000
1981-07-11 02:30:00 UTC,2444796.604167,29.6417,-93.6667,0037,-15.65,6.64,17.0000,293.0000
1981-07-11 03:00:00 UTC,2444796.625000,29.6417,-93.6667,0037,-13.42,8.71,16.0000,303.0000
1981-07-11 03:30:00 UTC,2444796.645833,29.6417,-93.6667,0037,-15.10,9.80,18.0000,303.0000
1981-07-11 04:00:00 UTC,2444796.666667,29.6417,-93.6667,0037,-17.66,9.39,20.0000,298.0000
1981-07-11 04:30:00 UTC,2444796.687500,29.6417,-93.6667,0037,-17.49,9.70,20.0000,299.0000
1981-07-11 05:00:00 UTC,2444796.708333,29.6417,-93.6667,0037,-12.44,8.39,15.0000,304.0000
1981-07-11 05:30:00 UTC,2444796.729167,29.6417,-93.6667,0037,-8.19,5.74,10.0000,305.0000
1981-07-11 06:00:00 UTC,2444796.750000,29.6417,-93.6667,0037,-7.37,5.16,9.0000,305.0000
1981-07-11 06:30:00 UTC,2444796.770833,29.6417,-93.6667,0037,-7.22,8.30,11.0000,319.0000
1981-07-11 07:00:00 UTC,2444796.791667,29.6417,-93.6667,0037,-6.54,10.06,12.0000,327.0000
1981-07-11 07:30:00 UTC,2444796.812500,29.6417,-93.6667,0037,-5.46,5.85,8.0000,317.0000
1981-07-11 08:00:00 UTC,2444796.833333,29.6417,-93.6667,0037,-5.96,0.73,6.0000,277.0000
1981-07-11 08:30:00 UTC,2444796.854167,29.6417,-93.6667,0037,-7.13,-3.63,8.0000,243.0000
1981-07-11 09:00:00 UTC,2444796.875000,29.6417,-93.6667,0037,-6.89,-5.79,9.0000,230.0000
1981-07-11 09:30:00 UTC,2444796.895833,29.6417,-93.6667,0037,-5.66,-5.66,8.0000,225.0000
1981-07-11 10:00:00 UTC,2444796.916667,29.6417,-93.6667,0037,-6.13,-5.14,8.0000,230.0000
1981-07-11 10:30:00 UTC,2444796.937500,29.6417,-93.6667,0037,-8.22,-3.66,9.0000,246.0000
1981-07-11 11:00:00 UTC,2444796.958333,29.6417,-93.6667,0037,-9.61,-2.76,10.0000,254.0000
1981-07-11 11:30:00 UTC,2444796.979167,29.6417,-93.6667,0037,-9.56,-2.92,10.0000,253.0000
1981-07-11 12:00:00 UTC,2444797.000000,29.6417,-93.6667,0037,-8.73,-2.18,9.0000,256.0000
1981-07-11 12:30:00 UTC,2444797.020833,29.6417,-93.6667,0037,-7.73,-2.07,8.0000,255.0000
1981-07-11 13:00:00 UTC,2444797.041667,29.6417,-93.6667,0037,-6.62,-2.28,7.0000,251.0000
1981-07-11 13:30:00 UTC,2444797.062500,29.6417,-93.6667,0037,-7.94,-0.97,8.0000,263.0000
1981-07-11 14:00:00 UTC,2444797.083333,29.6417,-93.6667,0037,-8.86,1.56,9.0000,280.0000
1981-07-11 14:30:00 UTC,2444797.104167,29.6417,-93.6667,0037,-9.06,4.23,10.0000,295.0000
1981-07-11 15:00:00 UTC,2444797.125000,29.6417,-93.6667,0037,-7.88,6.16,10.0000,308.0000
1981-07-11 15:30:00 UTC,2444797.145833,29.6417,-93.6667,0037,-6.69,6.02,9.0000,312.0000
1981-07-11 16:00:00 UTC,2444797.166667,29.6417,-93.6667,0037,-7.37,5.16,9.0000,305.0000
1981-07-11 16:30:00 UTC,2444797.187500,29.6417,-93.6667,0037,-8.91,4.54,10.0000,297.0000
1981-07-11 17:00:00 UTC,2444797.208333,29.6417,-93.6667,0037,-9.61,2.76,10.0000,286.0000
1981-07-11 17:30:00 UTC,2444797.229167,29.6417,-93.6667,0037,-9.99,0.52,10.0000,273.0000
1981-07-11 18:00:00 UTC,2444797.250000,29.6417,-93.6667,0037,-9.99,-0.35,10.0000,268.0000
1981-07-11 18:30:00 UTC,2444797.270833,29.6417,-93.6667,0037,-9.99,-0.35,10.0000,268.0000
1981-07-11 19:00:00 UTC,2444797.291667,29.6417,-93.6667,0037,-8.91,-1.25,9.0000,262.0000
1981-07-11 19:30:00 UTC,2444797.312500,29.6417,-93.6667,0037,-9.34,-3.58,10.0000,249.0000
1981-07-11 20:00:00 UTC,2444797.333333,29.6417,-93.6667,0037,-11.35,-3.91,12.0000,251.0000
1981-07-11 20:30:00 UTC,2444797.354167,29.6417,-93.6667,0037,-14.72,-2.86,15.0000,259.0000
1981-07-11 21:00:00 UTC,2444797.375000,29.6417,-93.6667,0037,-16.69,-3.24,17.0000,259.0000
1981-07-11 21:30:00 UTC,2444797.395833,29.6417,-93.6667,0037,-16.69,-3.24,17.0000,259.0000
1981-07-11 22:00:00 UTC,2444797.416667,29.6417,-93.6667,0037,-14.92,-1.57,15.0000,264.0000
1981-07-11 22:30:00 UTC,2444797.437500,29.6417,-93.6667,0037,-14.00,-0.00,14.0000,270.0000
1981-07-11 23:00:00 UTC,2444797.458333,29.6417,-93.6667,0037,-12.97,0.91,13.0000,274.0000
1981-07-11 23:30:00 UTC,2444797.479167,29.6417,-93.6667,0037,-10.92,1.34,11.0000,277.0000
1981-07-12 00:00:00 UTC,2444797.500000,29.6417,-93.6667,0037,-8.83,1.72,9.0000,281.0000
1981-07-12 00:30:00 UTC,2444797.520833,29.6417,-93.6667,0037,-7.56,2.60,8.0000,289.0000
1981-07-12 01:00:00 UTC,2444797.541667,29.6417,-93.6667,0037,-7.71,4.64,9.0000,301.0000
1981-07-12 01:30:00 UTC,2444797.562500,29.6417,-93.6667,0037,-9.01,6.31,11.0000,305.0000
1981-07-12 02:00:00 UTC,2444797.583333,29.6417,-93.6667,0037,-9.95,6.71,12.0000,304.0000
1981-07-12 02:30:00 UTC,2444797.604167,29.6417,-93.6667,0037,-8.43,7.07,11.0000,310.0000
1981-07-12 03:00:00 UTC,2444797.625000,29.6417,-93.6667,0037,-7.22,8.30,11.0000,319.0000
1981-07-12 03:30:00 UTC,2444797.645833,29.6417,-93.6667,0037,-6.92,8.55,11.0000,321.0000
1981-07-12 04:00:00 UTC,2444797.666667,29.6417,-93.6667,0037,-7.50,8.04,11.0000,317.0000
1981-07-12 04:30:00 UTC,2444797.687500,29.6417,-93.6667,0037,-8.63,8.34,12.0000,314.0000
1981-07-12 05:00:00 UTC,2444797.708333,29.6417,-93.6667,0037,-9.46,7.39,12.0000,308.0000
1981-07-12 05:30:00 UTC,2444797.729167,29.6417,-93.6667,0037,-9.43,5.67,11.0000,301.0000
1981-07-12 06:00:00 UTC,2444797.750000,29.6417,-93.6667,0037,-6.63,4.47,8.0000,304.0000
1981-07-12 06:30:00 UTC,2444797.770833,29.6417,-93.6667,0037,-3.61,4.79,6.0000,323.0000
1981-07-12 07:00:00 UTC,2444797.791667,29.6417,-93.6667,0037,-2.42,4.37,5.0000,331.0000
1981-07-12 07:30:00 UTC,2444797.812500,29.6417,-93.6667,0037,-2.40,1.81,3.0000,307.0000
1981-07-12 08:00:00 UTC,2444797.833333,29.6417,-93.6667,0037,-2.49,-1.68,3.0000,236.0000
1981-07-12 08:30:00 UTC,2444797.854167,29.6417,-93.6667,0037,-4.39,-4.09,6.0000,227.0000
1981-07-12 09:00:00 UTC,2444797.875000,29.6417,-93.6667,0037,-3.86,-4.60,6.0000,220.0000
1981-07-12 09:30:00 UTC,2444797.895833,29.6417,-93.6667,0037,-1.21,-4.85,5.0000,194.0000
1981-07-12 10:00:00 UTC,2444797.916667,29.6417,-93.6667,0037,1.75,-5.74,6.0000,163.0000
1981-07-12 10:30:00 UTC,2444797.937500,29.6417,-93.6667,0037,1.53,-7.85,8.0000,169.0000
1981-07-12 11:00:00 UTC,2444797.958333,29.6417,-93.6667,0037,-2.76,-9.61,10.0000,196.0000
1981-07-12 11:30:00 UTC,2444797.979167,29.6417,-93.6667,0037,-6.88,-9.83,12.0000,215.0000
1981-07-12 12:00:00 UTC,2444798.000000,29.6417,-93.6667,0037,-7.64,-10.52,13.0000,216.0000
1981-07-12 12:30:00 UTC,2444798.020833,29.6417,-93.6667,0037,-5.45,-10.69,12.0000,207.0000
1981-07-12 13:00:00 UTC,2444798.041667,29.6417,-93.6667,0037,-4.30,-10.13,11.0000,203.0000
1981-07-12 13:30:00 UTC,2444798.062500,29.6417,-93.6667,0037,-4.30,-10.13,11.0000,203.0000
1981-07-12 14:00:00 UTC,2444798.083333,29.6417,-93.6667,0037,-6.00,-10.39,12.0000,210.0000
1981-07-12 14:30:00 UTC,2444798.104167,29.6417,-93.6667,0037,-7.87,-9.06,12.0000,221.0000
1981-07-12 15:00:00 UTC,2444798.125000,29.6417,-93.6667,0037,-8.00,-10.24,13.0000,218.0000
1981-07-12 15:30:00 UTC,2444798.145833,29.6417,-93.6667,0037,-10.50,-12.08,16.0000,221.0000
1981-07-12 16:00:00 UTC,2444798.166667,29.6417,-93.6667,0037,-12.72,-7.95,15.0000,238.0000
1981-07-12 16:30:00 UTC,2444798.187500,29.6417,-93.6667,0037,-13.46,-3.86,14.0000,254.0000
1981-07-12 17:00:00 UTC,2444798.208333,29.6417,-93.6667,0037,-12.80,-2.26,13.0000,260.0000
1981-07-12 17:30:00 UTC,2444798.229167,29.6417,-93.6667,0037,-11.78,-2.29,12.0000,259.0000
1981-07-12 18:00:00 UTC,2444798.250000,29.6417,-93.6667,0037,-10.72,-2.47,11.0000,257.0000
1981-07-12 18:30:00 UTC,2444798.270833,29.6417,-93.6667,0037,-10.67,-2.66,11.0000,256.0000
1981-07-12 19:00:00 UTC,2444798.291667,29.6417,-93.6667,0037,-10.63,-2.85,11.0000,255.0000
1981-07-12 19:30:00 UTC,2444798.312500,29.6417,-93.6667,0037,-11.41,-3.71,12.0000,252.0000
1981-07-12 20:00:00 UTC,2444798.333333,29.6417,-93.6667,0037,-11.48,-3.51,12.0000,253.0000
1981-07-12 20:30:00 UTC,2444798.354167,29.6417,-93.6667,0037,-10.67,-2.66,11.0000,256.0000
1981-07-12 21:00:00 UTC,2444798.375000,29.6417,-93.6667,0037,-9.74,-2.25,10.0000,257.0000
1981-07-12 21:30:00 UTC,2444798.395833,29.6417,-93.6667,0037,-10.67,-2.66,11.0000,256.0000
1981-07-12 22:00:00 UTC,2444798.416667,29.6417,-93.6667,0037,-11.74,-2.49,12.0000,258.0000
1981-07-12 22:30:00 UTC,2444798.437500,29.6417,-93.6667,0037,-11.91,-1.46,12.0000,263.0000
1981-07-12 23:00:00 UTC,2444798.458333,29.6417,-93.6667,0037,-11.99,-0.42,12.0000,268.0000
1981-07-12 23:30:00 UTC,2444798.479167,29.6417,-93.6667,0037,-10.98,0.58,11.0000,273.0000
1981-07-13 00:00:00 UTC,2444798.500000,29.6417,-93.6667,0037,-8.97,0.78,9.0000,275.0000
1981-07-13 00:30:00 UTC,2444798.520833,29.6417,-93.6667,0037,-6.85,1.46,7.0000,282.0000
1981-07-13 01:00:00 UTC,2444798.541667,29.6417,-93.6667,0037,-5.71,1.85,6.0000,288.0000
1981-07-13 01:30:00 UTC,2444798.562500,29.6417,-93.6667,0037,-5.60,2.15,6.0000,291.0000
1981-07-13 02:00:00 UTC,2444798.583333,29.6417,-93.6667,0037,-6.29,3.07,7.0000,296.0000
1981-07-13 02:30:00 UTC,2444798.604167,29.6417,-93.6667,0037,-6.06,3.50,7.0000,300.0000
1981-07-13 03:00:00 UTC,2444798.625000,29.6417,-93.6667,0037,-6.12,3.39,7.0000,299.0000
1981-07-13 03:30:00 UTC,2444798.645833,29.6417,-93.6667,0037,-6.29,3.07,7.0000,296.0000
1981-07-13 04:00:00 UTC,2444798.666667,29.6417,-93.6667,0037,-5.52,2.34,6.0000,293.0000
1981-07-13 04:30:00 UTC,2444798.687500,29.6417,-93.6667,0037,-4.81,1.38,5.0000,286.0000
1981-07-13 05:00:00 UTC,2444798.708333,29.6417,-93.6667,0037,-5.00,-0.17,5.0000,268.0000
1981-07-13 05:30:00 UTC,2444798.729167,29.6417,-93.6667,0037,-5.80,-1.55,6.0000,255.0000
1981-07-13 06:00:00 UTC,2444798.750000,29.6417,-93.6667,0037,-8.22,-3.66,9.0000,246.0000
1981-07-13 06:30:00 UTC,2444798.770833,29.6417,-93.6667,0037,-9.12,-6.15,11.0000,236.0000
1981-07-13 07:00:00 UTC,2444798.791667,29.6417,-93.6667,0037,-8.92,-8.03,12.0000,228.0000
1981-07-13 07:30:00 UTC,2444798.812500,29.6417,-93.6667,0037,-8.03,-8.92,12.0000,222.0000
1981-07-13 08:00:00 UTC,2444798.833333,29.6417,-93.6667,0037,-7.46,-10.65,13.0000,215.0000
1981-07-13 08:30:00 UTC,2444798.854167,29.6417,-93.6667,0037,-7.73,-12.86,15.0000,211.0000
1981-07-13 09:00:00 UTC,2444798.875000,29.6417,-93.6667,0037,-7.95,-12.72,15.0000,212.0000
1981-07-13 09:30:00 UTC,2444798.895833,29.6417,-93.6667,0037,-8.71,-13.42,16.0000,213.0000
1981-07-13 10:00:00 UTC,2444798.916667,29.6417,-93.6667,0037,-9.01,-14.42,17.0000,212.0000
1981-07-13 10:30:00 UTC,2444798.937500,29.6417,-93.6667,0037,-9.26,-14.26,17.0000,213.0000
1981-07-13 11:00:00 UTC,2444798.958333,29.6417,-93.6667,0037,-9.84,-11.32,15.0000,221.0000
1981-07-13 11:30:00 UTC,2444798.979167,29.6417,-93.6667,0037,-10.57,-9.18,14.0000,229.0000
1981-07-13 12:00:00 UTC,2444799.000000,29.6417,-93.6667,0037,-9.46,-7.39,12.0000,232.0000
1981-07-13 12:30:00 UTC,2444799.020833,29.6417,-93.6667,0037,-9.01,-6.31,11.0000,235.0000
1981-07-13 13:00:00 UTC,2444799.041667,29.6417,-93.6667,0037,-9.14,-4.07,10.0000,246.0000
1981-07-13 13:30:00 UTC,2444799.062500,29.6417,-93.6667,0037,-9.99,-0.52,10.0000,267.0000
1981-07-13 14:00:00 UTC,2444799.083333,29.6417,-93.6667,0037,-11.74,2.49,12.0000,282.0000
1981-07-13 14:30:00 UTC,2444799.104167,29.6417,-93.6667,0037,-11.48,3.51,12.0000,287.0000
1981-07-13 15:00:00 UTC,2444799.125000,29.6417,-93.6667,0037,-10.05,4.47,11.0000,294.0000
1981-07-13 15:30:00 UTC,2444799.145833,29.6417,-93.6667,0037,-8.48,5.30,10.0000,302.0000
1981-07-13 16:00:00 UTC,2444799.166667,29.6417,-93.6667,0037,-7.37,5.16,9.0000,305.0000
1981-07-13 16:30:00 UTC,2444799.187500,29.6417,-93.6667,0037,-8.29,5.59,10.0000,304.0000
1981-07-13 17:00:00 UTC,2444799.208333,29.6417,-93.6667,0037,-6.79,5.90,9.0000,311.0000
1981-07-13 17:30:00 UTC,2444799.229167,29.6417,-93.6667,0037,-5.42,7.19,9.0000,323.0000
1981-07-13 18:00:00 UTC,2444799.250000,29.6417,-93.6667,0037,-4.36,6.71,8.0000,327.0000
1981-07-13 18:30:00 UTC,2444799.270833,29.6417,-93.6667,0037,-5.03,6.22,8.0000,321.0000
1981-07-13 19:00:00 UTC,2444799.291667,29.6417,-93.6667,0037,-5.95,5.35,8.0000,312.0000
1981-07-13 19:30:00 UTC,2444799.312500,29.6417,-93.6667,0037,-6.55,4.59,8.0000,305.0000
1981-07-13 20:00:00 UTC,2444799.333333,29.6417,-93.6667,0037,-5.59,4.21,7.0000,307.0000
1981-07-13 20:30:00 UTC,2444799.354167,29.6417,-93.6667,0037,-1.37,3.76,4.0000,340.0000
1981-07-13 21:00:00 UTC,2444799.375000,29.6417,-93.6667,0037,3.43,2.06,4.0000,59.0000
1981-07-13 21:30:00 UTC,2444799.395833,29.6417,-93.6667,0037,5.99,-0.31,6.0000,93.0000
1981-07-13 22:00:00 UTC,2444799.416667,29.6417,-93.6667,0037,6.73,-1.93,7.0000,106.0000
1981-07-13 22:30:00 UTC,2444799.437500,29.6417,-93.6667,0037,7.31,-3.25,8.0000,114.0000
1981-07-13 23:00:00 UTC,2444799.458333,29.6417,-93.6667,0037,7.71,-4.64,9.0000,121.0000
1981-07-13 23:30:00 UTC,2444799.479167,29.6417,-93.6667,0037,7.88,-6.16,10.0000,128.0000
1981-07-14 00:00:00 UTC,2444799.500000,29.6417,-93.6667,0037,7.50,-8.04,11.0000,137.0000
1981-07-14 00:30:00 UTC,2444799.520833,29.6417,-93.6667,0037,7.64,-10.52,13.0000,144.0000
1981-07-14 01:00:00 UTC,2444799.541667,29.6417,-93.6667,0037,7.08,-10.90,13.0000,147.0000
1981-07-14 01:30:00 UTC,2444799.562500,29.6417,-93.6667,0037,6.50,-11.26,13.0000,150.0000
1981-07-14 02:00:00 UTC,2444799.583333,29.6417,-93.6667,0037,4.50,-11.13,12.0000,158.0000
1981-07-14 02:30:00 UTC,2444799.604167,29.6417,-93.6667,0037,2.70,-11.69,12.0000,167.0000
1981-07-14 03:00:00 UTC,2444799.625000,29.6417,-93.6667,0037,0.91,-12.97,13.0000,176.0000
1981-07-14 03:30:00 UTC,2444799.645833,29.6417,-93.6667,0037,-0.98,-13.97,14.0000,184.0000
1981-07-14 04:00:00 UTC,2444799.666667,29.6417,-93.6667,0037,-2.09,-14.85,15.0000,188.0000
1981-07-14 04:30:00 UTC,2444799.687500,29.6417,-93.6667,0037,-3.33,-15.65,16.0000,192.0000
1981-07-14 05:00:00 UTC,2444799.708333,29.6417,-93.6667,0037,-4.97,-16.26,17.0000,197.0000
1981-07-14 05:30:00 UTC,2444799.729167,29.6417,-93.6667,0037,-6.45,-16.80,18.0000,201.0000
1981-07-14 06:00:00 UTC,2444799.750000,29.6417,-93.6667,0037,-8.33,-17.08,19.0000,206.0000
1981-07-14 06:30:00 UTC,2444799.770833,29.6417,-93.6667,0037,-10.30,-17.14,20.0000,211.0000
1981-07-14 07:00:00 UTC,2444799.791667,29.6417,-93.6667,0037,-11.76,-16.18,20.0000,216.0000
1981-07-14 07:30:00 UTC,2444799.812500,29.6417,-93.6667,0037,-12.96,-13.90,19.0000,223.0000
1981-07-14 08:00:00 UTC,2444799.833333,29.6417,-93.6667,0037,-14.39,-13.89,20.0000,226.0000
1981-07-14 08:30:00 UTC,2444799.854167,29.6417,-93.6667,0037,-14.63,-13.64,20.0000,227.0000
1981-07-14 09:00:00 UTC,2444799.875000,29.6417,-93.6667,0037,-14.77,-11.96,19.0000,231.0000
1981-07-14 09:30:00 UTC,2444799.895833,29.6417,-93.6667,0037,-14.26,-9.26,17.0000,237.0000
1981-07-14 10:00:00 UTC,2444799.916667,29.6417,-93.6667,0037,-13.70,-6.10,15.0000,246.0000
1981-07-14 10:30:00 UTC,2444799.937500,29.6417,-93.6667,0037,-12.61,-3.15,13.0000,256.0000
1981-07-14 11:00:00 UTC,2444799.958333,29.6417,-93.6667,0037,-11.98,-0.63,12.0000,267.0000
1981-07-14 11:30:00 UTC,2444799.979167,29.6417,-93.6667,0037,-11.82,2.08,12.0000,280.0000
1981-07-14 12:00:00 UTC,2444800.000000,29.6417,-93.6667,0037,-10.88,5.07,12.0000,295.0000
1981-07-14 12:30:00 UTC,2444800.020833,29.6417,-93.6667,0037,-9.06,7.87,12.0000,311.0000
1981-07-14 13:00:00 UTC,2444800.041667,29.6417,-93.6667,0037,-6.88,9.83,12.0000,325.0000
1981-07-14 13:30:00 UTC,2444800.062500,29.6417,-93.6667,0037,-3.03,10.57,11.0000,344.0000
1981-07-14 14:00:00 UTC,2444800.083333,29.6417,-93.6667,0037,0.77,10.97,11.0000,4.0000
1981-07-14 14:30:00 UTC,2444800.104167,29.6417,-93.6667,0037,3.71,11.41,12.0000,18.0000
1981-07-14 15:00:00 UTC,2444800.125000,29.6417,-93.6667,0037,4.65,9.97,11.0000,25.0000
1981-07-14 15:30:00 UTC,2444800.145833,29.6417,-93.6667,0037,4.82,9.89,11.0000,26.0000
1981-07-14 16:00:00 UTC,2444800.166667,29.6417,-93.6667,0037,4.54,8.91,10.0000,27.0000
1981-07-14 16:30:00 UTC,2444800.187500,29.6417,-93.6667,0037,4.36,7.87,9.0000,29.0000
1981-07-14 17:00:00 UTC,2444800.208333,29.6417,-93.6667,0037,4.64,7.71,9.0000,31.0000
1981-07-14 17:30:00 UTC,2444800.229167,29.6417,-93.6667,0037,3.61,6.00,7.0000,31.0000
1981-07-14 18:00:00 UTC,2444800.250000,29.6417,-93.6667,0037,3.61,4.79,6.0000,37.0000
1981-07-14 18:30:00 UTC,2444800.270833,29.6417,-93.6667,0037,3.99,3.01,5.0000,53.0000
1981-07-14 19:00:00 UTC,2444800.291667,29.6417,-93.6667,0037,3.00,0.16,3.0000,87.0000
1981-07-14 19:30:00 UTC,2444800.312500,29.6417,-93.6667,0037,4.73,-1.63,5.0000,109.0000
1981-07-14 20:00:00 UTC,2444800.333333,29.6417,-93.6667,0037,7.65,-2.34,8.0000,107.0000
1981-07-14 20:30:00 UTC,2444800.354167,29.6417,-93.6667,0037,10.46,-3.40,11.0000,108.0000
1981-07-14 21:00:00 UTC,2444800.375000,29.6417,-93.6667,0037,10.79,-5.26,12.0000,116.0000
1981-07-14 21:30:00 UTC,2444800.395833,29.6417,-93.6667,0037,10.18,-6.36,12.0000,122.0000
1981-07-14 22:00:00 UTC,2444800.416667,29.6417,-93.6667,0037,9.12,-6.15,11.0000,124.0000
1981-07-14 22:30:00 UTC,2444800.437500,29.6417,-93.6667,0037,8.19,-5.74,10.0000,125.0000
1981-07-14 23:00:00 UTC,2444800.458333,29.6417,-93.6667,0037,5.80,-3.91,7.0000,124.0000
1981-07-14 23:30:00 UTC,2444800.479167,29.6417,-93.6667,0037,4.15,-2.80,5.0000,124.0000
1981-07-15 00:00:00 UTC,2444800.500000,29.6417,-93.6667,0037,3.32,-2.24,4.0000,124.0000
1981-07-15 00:30:00 UTC,2444800.520833,29.6417,-93.6667,0037,3.46,-2.00,4.0000,120.0000
1981-07-15 01:00:00 UTC,2444800.541667,29.6417,-93.6667,0037,4.29,-2.58,5.0000,121.0000
1981-07-15 01:30:00 UTC,2444800.562500,29.6417,-93.6667,0037,4.37,-2.42,5.0000,119.0000
1981-07-15 02:00:00 UTC,2444800.583333,29.6417,-93.6667,0037,3.28,-2.29,4.0000,125.0000
1981-07-15 02:30:00 UTC,2444800.604167,29.6417,-93.6667,0037,2.42,-4.37,5.0000,151.0000
1981-07-15 03:00:00 UTC,2444800.625000,29.6417,-93.6667,0037,0.84,-5.94,6.0000,172.0000
1981-07-15 03:30:00 UTC,2444800.645833,29.6417,-93.6667,0037,-0.85,-6.95,7.0000,187.0000
1981-07-15 04:00:00 UTC,2444800.666667,29.6417,-93.6667,0037,-2.85,-6.39,7.0000,204.0000
1981-07-15 04:30:00 UTC,2444800.687500,29.6417,-93.6667,0037,-4.32,-4.17,6.0000,226.0000
1981-07-15 05:00:00 UTC,2444800.708333,29.6417,-93.6667,0037,-6.00,-3.61,7.0000,239.0000
1981-07-15 05:30:00 UTC,2444800.729167,29.6417,-93.6667,0037,-9.14,-4.07,10.0000,246.0000
1981-07-15 06:00:00 UTC,2444800.750000,29.6417,-93.6667,0037,-11.74,-2.49,12.0000,258.0000
1981-07-15 06:30:00 UTC,2444800.770833,29.6417,-93.6667,0037,-13.00,-0.23,13.0000,269.0000
1981-07-15 07:00:00 UTC,2444800.791667,29.6417,-93.6667,0037,-12.95,1.13,13.0000,275.0000
1981-07-15 07:30:00 UTC,2444800.812500,29.6417,-93.6667,0037,-13.86,1.95,14.0000,278.0000
1981-07-15 08:00:00 UTC,2444800.833333,29.6417,-93.6667,0037,-15.65,3.33,16.0000,282.0000
1981-07-15 08:30:00 UTC,2444800.854167,29.6417,-93.6667,0037,-15.45,4.14,16.0000,285.0000
1981-07-15 09:00:00 UTC,2444800.875000,29.6417,-93.6667,0037,-12.67,2.92,13.0000,283.0000
1981-07-15 09:30:00 UTC,2444800.895833,29.6417,-93.6667,0037,-10.52,3.22,11.0000,287.0000
1981-07-15 10:00:00 UTC,2444800.916667,29.6417,-93.6667,0037,-7.31,6.82,10.0000,313.0000
1981-07-15 10:30:00 UTC,2444800.937500,29.6417,-93.6667,0037,-4.12,10.20,11.0000,338.0000
1981-07-15 11:00:00 UTC,2444800.958333,29.6417,-93.6667,0037,-1.46,11.91,12.0000,353.0000